Wind_Speed
34 35 36 37 37 38 39 39 40 40 41 41 41 42 43 44 44 45 46 47 47 48 49 49 49 49 49 49 49 48 49 49 49 48 49 49 49 49 49 49 50 50 50
35 35 36 37 38 39 40 41 41 42 43 43 44 43 44 44 45 46 46 47 48 49 49 49 50 50 50 50 49 49 49 50 50 49 49 50 50 50 50 50 50 50 51
35 36 37 38 39 40 41 42 42 42 43 44 45 45 45 45 46 47 47 48 49 49 50 50 50 50 50 50 50 50 50 50 50 50 50 50 50 50 50 50 50 51 51
36 37 37 38 39 40 41 42 42 42 43 44 45 45 45 46 46 46 47 47 48 49 50 50 49 48 49 49 50 50 50 50 50 49 49 49 49 49 49 49 50 50 50
36 37 38 39 39 40 41 41 42 42 43 44 45 46 46 46 47 47 47 47 48 48 49 48 49 49 49 48 49 49 49 48 48 48 48 47 47 47 48 49 49 49 50
37 37 39 39 40 41 41 42 43 43 44 44 44 45 46 46 46 47 47 47 47 47 47 48 48 48 48 47 47 47 47 47 47 47 47 46 47 47 48 48 48 48 48
38 38 39 40 40 41 42 42 43 43 43 44 44 44 45 46 46 46 46 46 46 46 46 46 46 46 45 45 45 45 46 46 46 46 46 46 46 46 47 47 47 47 47
39 39 39 40 41 41 41 42 42 43 44 44 44 44 45 45 45 46 46 45 45 45 44 44 44 44 45 44 44 44 44 44 44 44 44 45 46 46 47 46 46 46 46
40 40 41 41 41 41 42 42 42 42 43 44 44 44 44 44 45 45 44 44 43 43 43 43 44 43 43 43 43 43 43 43 43 43 43 43 44 45 46 46 45 45 44
41 41 41 41 42 42 42 42 42 42 42 42 42 42 43 43 43 43 43 43 42 41 42 42 42 42 42 43 43 42 42 42 42 42 42 43 44 45 45 44 44 43 43
42 42 41 41 41 41 41 42 42 41 41 41 41 41 41 42 43 43 42 41 41 41 42 42 41 41 41 42 42 42 42 42 42 41 42 42 43 43 43 43 43 42 42
41 41 41 41 41 41 41 41 41 41 41 41 41 41 41 41 41 41 41 41 40 40 40 40 40 40 41 41 42 42 41 41 41 41 41 42 42 42 41 41 41 41 41
40 40 40 40 40 41 41 40 40 40 41 41 41 41 41 40 40 40 40 39 39 39 39 39 39 39 40 41 41 41 40 40 40 40 40 40 40 40 40 40 40 40 40
41 40 40 40 41 40 40 41 41 41 40 41 41 41 40 40 40 39 39 39 39 38 38 37 38 38 38 38 39 39 38 38 38 38 38 38 38 38 38 38 39 39 39
41 41 41 40 40 40 40 40 40 40 40 40 41 40 40 39 39 39 38 38 37 37 37 37 37 37 37 37 37 37 36 36 36 36 35 35 35 35 36 37 38 38 37
40 40 40 40 40 40 40 39 39 40 40 40 40 40 40 39 38 38 37 37 36 36 36 35 35 35 34 34 34 34 34 34 34 33 33 33 34 35 35 36 36 35 35
40 40 40 40 39 39 39 39 39 38 38 39 39 39 38 38 37 36 36 35 35 35 35 34 34 33 32 32 32 32 33 33 32 32 32 33 33 34 34 34 34 33 33
40 40 40 39 39 38 38 38 38 38 37 37 37 37 37 37 36 36 35 35 34 34 34 33 32 31 31 31 32 32 32 32 31 31 32 32 33 33 33 33 32 32 32
39 39 38 38 38 37 37 37 37 37 36 36 35 35 36 36 36 35 34 34 33 33 32 31 31 30 30 30 31 31 31 30 30 30 30 31 31 31 31 31 31 31 31
38 37 37 37 36 36 36 36 36 36 36 35 35 34 35 35 34 33 33 32 31 31 31 30 30 30 30 30 30 30 30 29 29 29 30 30 30 29 29 30 29 29 29
37 36 36 36 36 35 35 36 35 35 35 34 33 33 33 33 32 31 31 31 31 30 30 30 29 29 29 29 29 29 29 28 28 28 28 28 28 28 28 29 29 29 28
34 34 34 34 34 34 34 34 33 33 32 32 31 31 32 32 31 31 31 31 30 30 29 29 28 28 28 28 28 28 27 27 27 26 27 27 27 27 27 27 28 28 28
32 31 31 31 32 32 32 31 31 31 30 30 30 31 31 30 30 30 30 29 29 28 28 27 27 27 26 26 27 27 26 26 25 26 26 26 26 26 26 26 27 26 26
31 30 30 30 30 29 29 29 29 29 29 29 29 30 30 29 29 28 28 27 26 26 26 26 26 25 25 26 26 26 26 25 25 26 26 26 26 26 26 26 25 24 23
29 28 28 28 28 28 28 28 28 27 27 27 27 28 27 27 26 26 26 26 25 25 25 25 25 25 25 25 25 26 26 26 26 26 26 26 26 26 25 24 23 22 21
28 28 28 28 28 28 27 27 27 26 26 26 26 26 25 25 24 24 24 24 24 24 24 24 24 24 24 25 25 25 25 25 25 26 26 25 25 24 23 22 21 20 19
Wind_Direction
269 270 271 272 273 273 275 275 275 276 276 276 276 276 276 276 276 276 276 276 276 277 278 278 278 279 280 281 281 281 282 282 282 282 282 282 282 283 283 283 282 280 279
269 271 272 273 274 275 275 276 277 277 277 277 277 277 277 277 277 277 277 276 277 278 278 278 278 278 279 280 280 281 282 282 282 282 281 282 282 282 282 282 282 281 280
270 271 273 274 274 275 276 276 277 278 278 278 278 278 279 278 278 279 278 278 279 279 279 278 278 278 279 280 280 281 282 282 283 283 282 282 282 282 281 281 282 283 282
271 272 273 274 274 274 275 277 277 278 279 279 279 279 279 279 278 279 279 280 280 280 279 278 278 279 280 281 281 281 282 282 283 283 283 283 283 282 282 282 281 282 282
271 272 273 275 275 276 276 277 277 278 279 279 280 280 279 280 279 279 280 281 281 280 279 279 279 280 281 282 282 282 282 282 283 283 283 283 283 283 283 282 282 282 283
272 273 273 275 276 277 277 277 278 278 279 279 280 280 281 281 281 280 280 281 282 281 280 280 281 280 280 282 283 283 283 282 282 283 283 284 283 283 284 284 284 284 284
274 275 276 276 277 278 278 278 278 278 279 279 280 281 281 281 282 282 282 283 283 282 281 281 281 280 281 282 283 284 284 283 283 284 284 284 284 284 285 286 286 287 286
275 276 277 278 279 279 279 279 279 279 280 280 281 281 281 281 281 282 282 283 284 283 282 282 281 281 281 281 282 283 284 284 284 284 284 285 285 285 286 287 287 287 286
276 277 278 279 280 280 280 280 281 281 280 280 281 281 281 282 282 282 283 284 284 283 282 282 282 281 281 282 283 284 284 284 284 284 284 285 285 286 287 288 288 288 286
277 278 279 280 280 281 281 281 282 281 281 281 282 282 282 282 282 283 283 284 283 283 283 283 283 283 282 281 282 283 283 284 285 285 285 285 286 288 289 290 289 289 287
278 279 280 281 281 281 281 281 281 281 281 281 282 282 283 283 283 283 282 283 283 284 284 284 283 283 283 283 283 284 284 284 285 285 285 286 287 288 290 290 290 289 288
279 280 279 280 281 281 282 281 281 280 281 281 282 283 284 284 284 284 283 283 284 284 285 284 283 282 282 282 283 284 284 284 285 286 287 287 288 288 289 290 290 289 288
280 280 280 280 281 281 281 280 280 281 281 282 283 284 284 284 284 284 283 284 285 285 286 285 284 283 283 283 284 284 284 284 286 287 288 289 290 289 289 289 290 290 289
281 281 281 281 280 280 280 279 280 280 281 282 283 284 284 283 284 284 284 283 284 285 286 286 286 285 284 284 283 284 284 285 286 287 288 289 289 290 289 290 290 289 289
281 281 281 281 281 280 280 280 279 279 280 282 283 284 284 283 284 284 285 284 284 284 285 286 286 285 284 283 283 284 284 286 287 288 288 289 289 291 292 292 292 291 290
280 280 280 281 280 281 280 280 280 279 280 281 283 284 284 284 284 284 285 285 285 285 286 285 285 285 285 284 284 284 286 287 287 288 288 288 290 292 294 294 293 292 292
281 281 281 281 281 281 280 280 280 280 280 282 282 283 283 283 284 284 284 284 285 286 286 286 285 285 285 285 285 285 286 287 287 287 288 290 292 293 294 295 294 294 293
282 282 281 281 281 280 280 280 280 281 281 281 282 282 283 282 283 284 284 284 285 286 286 286 286 285 285 285 285 286 287 287 287 288 290 292 293 295 296 296 295 295 295
282 282 282 281 280 279 279 279 280 281 281 281 281 282 283 284 284 284 284 285 285 285 286 286 285 284 285 286 287 287 287 287 287 289 291 293 295 296 297 298 298 298 298
281 282 282 282 281 281 280 280 281 282 282 281 281 281 282 283 283 283 284 284 285 285 285 285 284 283 284 286 287 288 287 287 288 290 291 293 294 296 297 299 299 299 299
281 282 282 282 282 281 281 281 282 282 282 281 280 281 281 282 282 283 283 283 284 284 284 284 283 282 283 285 287 287 288 287 288 290 291 293 294 295 297 299 299 299 300
282 282 282 282 282 282 282 282 282 282 282 280 279 280 280 281 282 282 283 283 283 284 284 283 282 282 284 285 286 287 288 288 288 289 291 293 294 296 298 300 301 301 302
283 283 282 282 282 283 283 283 283 283 281 280 279 280 281 281 282 283 282 282 282 282 282 282 282 283 284 284 286 287 288 288 288 289 292 293 294 296 297 299 301 303 303
282 282 283 283 283 283 283 284 284 283 282 281 281 281 281 282 281 282 282 281 281 281 281 282 282 283 284 286 287 288 288 288 289 291 293 293 293 295 296 298 300 302 303
283 282 282 282 283 283 283 284 284 283 282 282 282 282 281 281 281 281 282 281 281 280 281 281 281 283 285 287 288 289 289 289 290 292 293 293 293 294 296 297 299 300 300
282 282 282 282 282 283 283 282 282 282 281 282 282 282 281 281 281 282 283 283 281 280 280 281 282 283 285 287 288 290 291 291 290 291 292 292 293 293 294 295 296 297 298
Height
5676 5676 5676 5676 5675 5675 5675 5674 5674 5673 5673 5673 5672 5671 5671 5670 5669 5668 5667 5666 5664 5663 5661 5660 5659 5658 5656 5655 5653 5651 5650 5648 5647 5647 5644 5642 5640 5637 5635 5633 5631 5629 5628
5667 5667 5666 5666 5666 5665 5665 5664 5663 5663 5662 5661 5661 5660 5659 5658 5657 5655 5654 5653 5652 5650 5648 5647 5646 5644 5643 5641 5639 5638 5636 5634 5633 5633 5631 5628 5625 5623 5621 5619 5617 5615 5613
5658 5657 5657 5656 5655 5655 5654 5654 5653 5652 5651 5650 5649 5648 5647 5646 5644 5643 5641 5640 5638 5637 5635 5634 5632 5631 5629 5627 5626 5624 5622 5620 5619 5617 5616 5613 5611 5608 5606 5604 5602 5600 5598
5648 5647 5647 5646 5645 5644 5643 5643 5642 5641 5640 5639 5637 5636 5635 5633 5631 5630 5628 5627 5625 5623 5622 5620 5618 5617 5615 5613 5612 5610 5608 5606 5604 5602 5601 5599 5596 5594 5591 5590 5588 5586 5584
5638 5637 5636 5635 5634 5633 5632 5631 5630 5629 5628 5627 5625 5624 5622 5620 5619 5617 5615 5613 5612 5610 5608 5606 5605 5603 5601 5599 5598 5596 5594 5592 5590 5588 5586 5584 5582 5579 5577 5575 5573 5572 5569
5627 5626 5625 5624 5623 5622 5621 5620 5619 5617 5616 5614 5613 5611 5609 5607 5605 5603 5602 5600 5598 5597 5595 5593 5591 5589 5588 5586 5584 5582 5580 5578 5576 5574 5572 5570 5568 5565 5563 5561 5558 5557 5556
5616 5615 5614 5613 5612 5610 5609 5608 5607 5605 5603 5602 5600 5598 5597 5594 5592 5590 5589 5587 5585 5583 5581 5579 5578 5576 5574 5572 5570 5568 5566 5564 5562 5561 5559 5556 5554 5552 5550 5547 5544 5542 5540
5605 5604 5603 5602 5600 5599 5597 5596 5594 5593 5591 5590 5588 5586 5584 5582 5580 5578 5576 5574 5572 5570 5568 5566 5565 5563 5561 5560 5558 5556 5553 5551 5549 5547 5545 5543 5540 5538 5535 5533 5530 5528 5526
5594 5592 5591 5590 5589 5587 5585 5584 5582 5580 5579 5577 5575 5573 5571 5569 5567 5565 5563 5561 5560 5558 5556 5554 5552 5550 5549 5547 5546 5544 5542 5539 5536 5534 5532 5530 5527 5524 5522 5519 5517 5514 5513
5582 5581 5580 5578 5577 5575 5573 5572 5570 5568 5567 5565 5563 5561 5559 5557 5555 5553 5550 5549 5547 5546 5544 5542 5540 5538 5536 5534 5533 5531 5529 5527 5525 5522 5520 5517 5514 5511 5508 5506 5503 5501 5498
5570 5569 5568 5566 5564 5563 5561 5560 5558 5556 5555 5553 5552 5550 5548 5545 5543 5540 5538 5536 5535 5533 5531 5530 5528 5525 5523 5522 5520 5519 5517 5515 5513 5510 5508 5505 5502 5499 5496 5493 5490 5487 5485
5558 5557 5556 5554 5553 5551 5549 5548 5546 5544 5543 5542 5540 5538 5536 5533 5531 5528 5527 5525 5523 5521 5520 5518 5515 5513 5511 5510 5508 5506 5504 5502 5500 5498 5496 5493 5490 5487 5484 5481 5478 5475 5472
5546 5545 5543 5542 5541 5539 5537 5536 5534 5533 5531 5529 5527 5526 5524 5522 5520 5517 5515 5514 5511 5510 5508 5506 5504 5502 5500 5498 5496 5494 5492 5491 5489 5487 5484 5481 5478 5475 5473 5470 5467 5463 5460
5534 5532 5531 5529 5528 5527 5525 5524 5522 5521 5519 5517 5515 5514 5512 5511 5508 5506 5504 5502 5500 5499 5497 5494 5492 5490 5488 5486 5484 5483 5481 5479 5478 5476 5473 5470 5467 5464 5461 5459 5456 5453 5450
5521 5520 5519 5517 5516 5514 5513 5512 5510 5509 5507 5505 5504 5502 5500 5499 5497 5495 5493 5491 5489 5487 5485 5483 5482 5479 5477 5476 5474 5472 5470 5468 5466 5464 5462 5460 5457 5454 5451 5448 5444 5441 5438
5509 5507 5506 5505 5503 5502 5501 5500 5498 5496 5495 5493 5491 5490 5488 5487 5485 5483 5481 5480 5478 5476 5474 5473 5471 5469 5467 5465 5464 5462 5460 5458 5456 5454 5452 5450 5447 5444 5441 5437 5434 5431 5428
5496 5495 5494 5492 5491 5489 5488 5487 5486 5485 5483 5481 5480 5478 5476 5475 5474 5472 5471 5469 5467 5465 5464 5462 5460 5459 5457 5455 5454 5452 5450 5448 5446 5445 5443 5440 5438 5435 5432 5428 5425 5422 5419
5485 5483 5481 5480 5479 5477 5476 5475 5473 5472 5472 5471 5469 5467 5465 5464 5463 5461 5460 5459 5457 5455 5453 5452 5450 5449 5448 5446 5444 5443 5441 5439 5437 5435 5433 5431 5428 5426 5423 5420 5417 5414 5411
5473 5471 5469 5468 5467 5465 5464 5463 5462 5461 5460 5459 5458 5456 5454 5453 5452 5451 5449 5448 5447 5445 5444 5442 5441 5439 5438 5437 5435 5433 5431 5430 5428 5426 5424 5422 5420 5417 5414 5411 5409 5406 5403
5461 5459 5458 5456 5455 5454 5453 5452 5451 5449 5448 5447 5446 5445 5444 5443 5442 5441 5439 5438 5437 5436 5434 5433 5431 5430 5429 5428 5426 5424 5423 5421 5419 5417 5415 5413 5411 5409 5407 5404 5401 5398 5395
5449 5448 5446 5445 5444 5443 5441 5440 5439 5438 5437 5436 5435 5434 5433 5433 5432 5431 5430 5428 5427 5426 5425 5424 5422 5421 5420 5419 5417 5416 5414 5413 5411 5409 5407 5405 5403 5401 5399 5396 5394 5391 5388
5438 5437 5435 5434 5433 5432 5431 5430 5428 5427 5426 5426 5425 5424 5423 5423 5422 5421 5420 5419 5418 5417 5416 5414 5413 5412 5411 5410 5409 5407 5406 5405 5403 5401 5400 5398 5396 5394 5391 5389 5386 5384 5381
5427 5426 5425 5424 5423 5422 5421 5420 5418 5417 5416 5416 5415 5414 5414 5413 5412 5411 5410 5409 5408 5408 5407 5406 5405 5404 5403 5402 5400 5399 5398 5397 5395 5394 5392 5391 5389 5386 5384 5382 5379 5377 5374
5418 5416 5415 5414 5413 5412 5411 5410 5409 5408 5407 5406 5406 5405 5404 5404 5403 5402 5401 5400 5400 5399 5398 5398 5397 5396 5395 5394 5393 5391 5390 5389 5387 5386 5385 5383 5381 5379 5377 5375 5373 5370 5368
5408 5407 5406 5405 5404 5403 5402 5401 5400 5399 5399 5398 5397 5396 5396 5395 5394 5394 5393 5392 5391 5391 5390 5389 5389 5388 5387 5386 5385 5384 5382 5381 5380 5378 5377 5375 5373 5371 5370 5368 5366 5364 5362
5399 5398 5397 5396 5395 5394 5394 5393 5392 5391 5390 5390 5389 5388 5387 5387 5386 5386 5385 5384 5384 5383 5382 5382 5381 5380 5380 5378 5377 5376 5375 5373 5372 5370 5369 5367 5366 5364 5363 5361 5359 5358 5356